CAPE
0 0 0 0 0 0 0 0 0 0 0 0 0 0 0 0 0 0 0 0 0 0 0 0 0 0 0 0 0 0 0 0 0 0 0 0 0 0 0 0 0 0 0 0
0 0 0 0 0 0 0 0 0 0 0 0 0 0 0 0 0 0 0 0 0 0 0 0 0 0 0 0 0 0 0 0 0 0 0 0 0 0 0 0 0 0 0 0
0 0 0 0 0 0 0 0 0 0 0 0 0 0 0 0 0 0 0 0 0 0 0 0 0 0 0 0 0 0 0 0 0 0 0 0 0 0 0 0 0 0 0 0
0 0 0 0 0 0 0 0 0 0 0 0 0 0 0 0 0 0 0 0 0 0 0 0 0 0 0 0 0 0 0 0 0 0 0 0 0 0 0 0 0 0 0 0
0 0 0 0 0 0 0 0 0 0 0 0 0 0 0 0 0 0 0 0 0 0 0 0 0 0 0 0 0 0 0 0 0 0 0 0 0 0 0 0 0 0 0 0
0 0 0 0 0 0 0 0 0 0 0 0 0 0 0 0 0 0 0 0 0 0 0 0 0 0 0 0 0 0 0 0 0 0 0 0 0 0 0 0 0 0 0 0
0 0 0 0 0 0 0 0 0 0 0 0 0 0 0 0 0 0 0 0 0 0 0 0 0 0 0 0 0 0 0 0 0 0 0 0 0 0 0 0 0 0 0 0
0 0 0 0 0 0 0 0 0 0 0 0 0 0 0 0 0 0 0 0 0 0 0 0 0 0 0 0 0 0 0 0 0 0 0 0 0 0 0 0 0 0 0 0
0 0 0 0 0 0 0 0 0 0 0 0 0 0 0 0 0 0 0 0 0 0 0 0 0 0 0 0 0 0 0 0 0 0 0 0 0 0 0 0 0 0 0 0
0 0 0 0 0 0 0 0 0 0 0 0 0 0 0 0 0 0 0 0 0 0 0 0 0 0 0 0 0 0 0 0 0 0 0 0 0 0 0 0 0 0 0 0
0 4 0 0 0 0 0 0 0 0 0 0 0 0 0 0 0 0 0 0 0 0 0 0 0 0 0 0 0 0 0 0 0 0 0 0 0 0 0 0 0 0 0 0
0 2 0 0 0 0 0 0 0 0 0 0 0 0 0 0 0 0 0 0 0 0 0 0 0 0 0 0 0 0 0 0 0 0 0 0 0 0 0 0 0 0 0 0
0 0 0 0 0 0 0 0 0 0 0 0 0 0 0 0 0 0 0 0 0 0 0 0 0 0 0 0 0 0 0 0 0 0 0 0 0 0 0 0 0 2 0 0
0 0 0 0 0 0 0 0 0 0 0 0 0 0 0 0 0 0 0 0 0 0 0 0 0 0 0 0 0 0 0 0 0 0 0 0 0 0 0 0 0 0 0 0
0 0 0 0 0 0 0 0 0 0 0 0 0 0 0 0 0 0 0 0 0 0 0 0 0 0 0 0 0 0 0 0 0 0 0 0 0 0 0 0 0 0 0 0
0 0 0 0 0 0 0 0 0 0 0 0 0 0 0 0 0 0 0 0 0 0 0 0 0 0 0 0 0 0 0 0 0 0 0 0 0 0 0 0 0 0 0 0
0 0 0 0 0 0 0 0 0 0 0 0 0 0 0 0 0 0 0 0 0 0 0 0 0 0 0 0 0 0 0 0 0 0 0 0 0 0 0 0 0 0 0 0
0 0 0 0 0 0 0 0 0 0 0 0 0 0 0 0 0 0 0 0 0 0 0 0 0 0 0 0 0 0 0 0 0 0 0 0 0 0 0 0 0 0 0 0
0 0 0 0 0 0 0 0 0 0 0 0 0 0 0 0 0 0 0 0 0 0 0 0 0 0 0 0 0 0 0 0 0 0 0 0 0 0 0 0 0 0 0 0
0 0 0 0 0 0 0 0 0 0 0 0 0 0 0 0 0 0 0 0 0 0 0 0 0 0 0 0 0 0 0 0 0 0 0 0 0 0 0 0 0 2 0 3
0 0 0 0 0 0 0 0 0 0 0 0 0 0 0 0 0 0 0 0 0 0 0 0 0 0 0 0 0 0 0 0 0 0 0 0 0 0 0 0 2 0 0 1
0 0 0 0 0 0 0 0 0 0 0 0 0 0 0 0 0 0 0 0 0 0 0 0 0 0 0 0 0 0 0 0 0 0 0 0 0 0 0 0 0 0 0 0
0 0 0 0 0 0 0 0 0 0 0 0 0 0 0 0 0 0 0 0 0 0 0 0 0 0 0 0 0 0 0 0 0 0 0 0 0 0 0 0 0 0 0 0
0 0 0 0 0 0 0 0 0 0 0 0 0 0 0 0 0 0 0 0 0 0 0 0 0 0 0 0 0 0 0 0 0 0 0 0 0 0 0 0 0 0 0 0
0 0 0 0 0 0 0 0 0 0 0 0 0 0 0 0 0 0 0 0 0 0 0 0 0 0 0 0 0 0 0 0 0 0 0 0 0 0 0 0 0 0 0 0
0 0 0 0 0 0 0 0 0 0 0 0 0 0 0 0 0 0 0 0 0 0 0 0 0 0 0 0 0 0 0 0 0 0 0 0 0 0 0 0 0 0 0 0
0 0 0 0 0 0 0 0 0 0 0 0 0 0 0 0 0 0 0 0 0 0 0 0 0 0 0 0 0 0 0 0 0 0 0 0 0 0 0 0 0 0 0 0
CIN
-0 -0 -0 -0 -0 -0 -0 -0 -0 -0 -0 -0 -0 -0 -0 -0 -0 -0 -0 -0 -0 -0 -0 -0 -0 -0 -0 -0 -0 -0 -0 -0 -0 -0 -0 -0 -0 -0 -0 -0 -0 -0 -0 -0
-0 -0 -0 -0 -0 -0 -0 -0 -0 -0 -0 -0 -0 -0 -0 -0 -0 -0 -0 -0 -0 -0 -0 -0 -0 -0 -0 -0 -0 -0 -0 -0 -0 -0 -0 -0 -0 -0 -0 -0 -0 -0 -0 -0
-0 -0 -0 -0 -0 -0 -0 -0 -0 -0 -0 -0 -0 -0 -0 -0 -0 -0 -0 -0 -0 -0 -0 -0 -0 -0 -0 -0 -0 -0 -0 -0 -0 -0 -0 -0 -0 -0 -0 -0 -0 -0 -0 -0
-0 -0 -0 -0 -0 -0 -0 -0 -0 -0 -0 -0 -0 -0 -0 -0 -0 -0 -0 -0 -0 -0 -0 -0 -0 -0 -0 -0 -0 -0 -0 -0 -0 -0 -0 -0 -0 -0 -0 -0 -0 -0 -0 -0
-0 -0 -0 -0 -0 -0 -0 -0 -0 -0 -0 -0 -0 -0 -0 -0 -0 -0 -0 -0 -0 -0 -0 -0 -0 -0 -0 -0 -0 -0 -0 -0 -0 -0 -0 -0 -0 -0 -0 -0 -0 -0 -0 -0
-0 -0 -0 -0 -0 -0 -0 -0 -0 -0 -0 -0 -0 -0 -0 -0 -0 -0 -0 -0 -0 -0 -0 -0 -0 -0 -0 -0 -0 -0 -0 -0 -0 -0 -0 -0 -0 -0 -0 -0 -0 -0 -0 -0
-0 -0 -0 -0 -0 -0 -0 -0 -0 -0 -0 -0 -0 -0 -0 -0 -0 -0 -0 -0 -0 -0 -0 -0 -0 -0 -0 -0 -0 -0 -0 -0 -0 -0 -0 -0 -0 -0 -0 -0 -0 -0 -0 -0
-0 -0 -0 -0 -0 -0 -0 -0 -0 -0 -0 -0 -0 -0 -0 -0 -0 -0 -0 -0 -0 -0 -0 -0 -0 -0 -0 -0 -0 -0 -0 -0 -0 -0 -0 -0 -0 -0 -0 -0 -0 -0 -0 -0
-0 -0 -0 -0 -0 -0 -0 -0 -0 -0 -0 -0 -0 -0 -0 -0 -0 -0 -0 -0 -0 -0 -0 -0 -0 -0 -0 -0 -0 -0 -0 -0 -0 -0 -0 -0 -0 -0 -0 -0 -0 -0 -0 -0
-0 -0 -0 -0 -0 -0 -0 -0 -0 -0 -0 -0 -0 -0 -0 -0 -0 -0 -0 -0 -0 -0 -0 -0 -0 -0 -0 -0 -0 -0 -0 -0 -0 -0 -0 -0 -0 -0 -0 -0 -0 -0 -0 -0
-9 -12 -0 -0 -0 -0 -0 -0 -0 -0 -0 -0 -0 -0 -0 -0 -0 -0 -0 -0 -0 -0 -0 -0 -0 -0 -0 -0 -0 -0 -0 -0 -0 -0 -0 -0 -0 -0 -0 -0 -0 -0 -0 -0
-0 -8 -0 -0 -0 -0 -0 -0 -0 -0 -0 -0 -0 -0 -0 -0 -0 -0 -0 -0 -0 -0 -0 -0 -0 -0 -0 -0 -0 -0 -0 -0 -0 -0 -0 -0 -0 -0 -0 -0 -0 -0 -0 -0
-0 -0 -0 -0 -0 -0 -0 -0 -0 -0 -0 -0 -0 -0 -0 -0 -0 -0 -0 -0 -0 -0 -0 -0 -0 -0 -0 -0 -0 -0 -0 -0 -0 -0 -0 -0 -0 -0 -0 -0 -0 -14 -0 -0
-0 -0 -0 -0 -0 -0 -0 -0 -0 -0 -0 -0 -0 -0 -0 -0 -0 -0 -0 -0 -0 -0 -0 -0 -0 -0 -0 -0 -0 -0 -0 -0 -0 -0 -0 -0 -0 -0 -0 -0 -0 -0 -0 -0
-0 -0 -0 -0 -0 -0 -0 -0 -0 -0 -0 -0 -0 -0 -0 -0 -0 -0 -0 -0 -0 -0 -0 -0 -0 -0 -0 -0 -0 -0 -0 -0 -0 -0 -0 -0 -0 -0 -0 -0 -0 -0 -0 -0
-0 -0 -0 -0 -0 -0 -0 -0 -0 -0 -0 -0 -0 -0 -0 -0 -0 -0 -0 -0 -0 -0 -0 -0 -0 -0 -0 -0 -0 -0 -0 -0 -0 -0 -0 -0 -0 -0 -0 -0 -0 -0 -0 -0
-0 -0 -0 -0 -0 -0 -0 -0 -0 -0 -0 -0 -0 -0 -0 -0 -0 -0 -0 -0 -0 -0 -0 -0 -0 -0 -0 -0 -0 -0 -0 -0 -0 -0 -0 -0 -0 -0 -0 -0 -0 -0 -0 -0
-0 -0 -0 -0 -0 -0 -0 -0 -0 -0 -0 -0 -0 -0 -0 -0 -0 -0 -0 -0 -0 -0 -0 -0 -0 -0 -0 -0 -0 -0 -0 -0 -0 -0 -0 -0 -0 -0 -0 -0 -0 -0 -0 -0
-0 -0 -0 -0 -0 -0 -0 -0 -0 -0 -0 -0 -0 -0 -0 -0 -0 -0 -0 -0 -0 -0 -0 -0 -0 -0 -0 -0 -0 -0 -0 -0 -0 -0 -0 -0 -0 -0 -0 -0 -0 -0 -0 -0
-0 -0 -0 -0 -0 -0 -0 -0 -0 -0 -0 -0 -0 -0 -0 -0 -0 -0 -0 -0 -0 -0 -0 -0 -0 -0 -0 -0 -0 -0 -0 -0 -0 -0 -0 -0 -0 -0 -0 -0 -0 -0 -0 -0
-0 -0 -0 -0 -0 -0 -0 -0 -0 -0 -0 -0 -0 -0 -0 -0 -0 -0 -0 -0 -0 -0 -0 -0 -0 -0 -0 -0 -0 -0 -0 -0 -0 -0 -0 -0 -0 -0 -0 -0 -0 -0 -0 -0
-0 -0 -0 -0 -0 -0 -0 -0 -0 -0 -0 -0 -0 -0 -0 -0 -0 -0 -0 -0 -0 -0 -0 -0 -0 -0 -0 -0 -0 -0 -0 -0 -0 -0 -0 -0 -0 -0 -0 -0 -0 -0 -0 -0
-0 -0 -0 -0 -0 -0 -0 -0 -0 -0 -0 -0 -0 -0 -0 -0 -0 -0 -0 -0 -0 -0 -0 -0 -0 -0 -0 -0 -0 -0 -0 -0 -0 -0 -0 -0 -0 -0 -0 -0 -0 -0 -0 -0
-0 -0 -0 -0 -0 -0 -0 -0 -0 -0 -0 -0 -0 -0 -0 -0 -0 -0 -0 -0 -0 -0 -0 -0 -0 -0 -0 -0 -0 -0 -0 -0 -0 -0 -0 -0 -0 -0 -0 -0 -0 -0 -0 -0
-0 -0 -0 -0 -0 -0 -0 -0 -0 -0 -0 -0 -0 -0 -0 -0 -0 -0 -0 -0 -0 -0 -0 -0 -0 -0 -0 -0 -0 -0 -0 -0 -0 -0 -0 -0 -0 -0 -0 -0 -0 -0 -0 -0
-0 -0 -0 -0 -0 -0 -0 -0 -0 -0 -0 -0 -0 -0 -0 -0 -0 -0 -0 -0 -0 -0 -0 -0 -0 -0 -0 -0 -0 -0 -0 -0 -0 -0 -0 -0 -0 -0 -0 -0 -0 -0 -0 -0
-0 -0 -0 -0 -0 -0 -0 -0 -0 -0 -0 -0 -0 -0 -0 -0 -0 -0 -0 -0 -0 -0 -0 -0 -0 -0 -0 -0 -0 -0 -0 -0 -0 -0 -0 -0 -0 -0 -0 -0 -0 -0 -0 -0
Wind_Speed
4 6 6 7 6 8 6 5 6 5 7 5 14 16 14 13 12 12 13 12 11 11 11 11 12 13 14 13 12 12 12 11 9 9 8 7 7 7 6 7 6 6 6 6
5 8 5 7 11 12 9 5 6 7 8 8 9 13 14 14 13 14 14 13 12 12 12 13 13 13 13 12 11 11 12 11 9 8 8 7 7 6 7 7 7 6 6 5
4 4 5 8 8 6 8 7 13 8 9 12 10 10 12 13 14 14 14 14 13 12 11 11 11 12 11 11 10 11 10 9 8 7 7 7 6 7 7 6 6 6 6 5
4 4 2 9 5 7 9 7 8 5 18 15 12 8 12 12 14 14 15 15 13 12 12 12 11 11 10 10 10 9 8 8 7 7 6 6 7 6 6 4 5 4 6 7
5 3 5 6 6 6 6 7 4 14 17 18 16 16 8 11 11 13 14 12 12 11 11 10 11 10 11 9 8 8 6 6 7 6 6 6 6 5 4 5 4 5 6 7
3 5 8 9 8 4 7 5 5 21 19 22 13 8 5 13 16 15 15 13 12 12 11 11 9 10 10 8 7 6 5 6 6 6 6 5 5 4 3 3 7 7 8 6
4 4 7 7 7 5 7 11 10 19 20 17 6 7 14 18 16 16 15 15 13 11 10 8 9 10 9 7 6 5 6 6 6 6 5 5 4 3 5 7 7 6 6 5
3 3 7 4 3 9 8 1 14 14 13 9 14 20 20 19 18 17 16 14 13 11 7 7 10 11 8 7 5 6 6 6 6 6 4 3 5 5 6 6 6 6 5 4
9 9 7 2 7 5 6 8 5 10 15 20 21 20 20 18 18 16 15 12 12 12 12 10 10 9 8 5 6 6 6 6 6 5 5 4 5 5 4 5 4 3 3 3
4 6 7 7 3 7 7 10 10 17 18 21 21 19 18 16 16 14 13 14 13 13 11 9 9 9 6 6 6 6 5 6 5 5 5 5 4 2 3 2 2 2 3 3
5 7 4 5 8 8 11 16 16 15 17 17 20 18 18 17 15 14 14 14 13 12 11 10 9 7 7 6 6 5 6 5 5 4 4 4 4 2 1 3 3 3 3 2
6 6 6 6 9 11 17 15 18 16 14 15 17 18 17 15 13 14 14 13 13 12 12 10 9 8 7 5 5 5 5 4 3 3 4 3 4 4 4 5 7 7 7 3
6 6 5 10 13 10 14 16 14 15 17 17 15 17 16 15 13 14 14 14 14 13 12 10 10 8 6 5 5 5 4 4 4 4 4 3 3 4 3 6 7 6 9 6
11 7 3 7 9 15 17 14 14 15 15 16 14 15 14 15 15 15 14 12 14 13 12 11 10 7 5 5 5 4 5 7 4 3 4 3 3 3 3 3 2 4 5 5
17 16 8 8 14 14 17 17 18 16 15 14 15 16 16 18 15 14 14 14 14 12 11 11 9 6 5 5 4 3 5 4 2 3 4 3 4 4 4 4 4 3 3 4
11 9 6 15 18 18 18 18 19 16 16 16 16 17 16 16 17 15 14 14 14 9 9 9 7 5 6 5 5 4 4 4 2 2 3 4 4 4 4 4 3 3 3 3
6 6 4 13 18 19 21 18 17 17 16 18 19 18 19 18 16 15 13 11 13 10 8 9 7 6 7 5 5 3 3 2 5 3 4 4 3 4 4 2 3 3 3 5
7 9 12 14 15 13 13 14 15 18 18 20 20 19 18 17 16 13 13 13 12 9 8 7 6 8 7 4 3 3 3 3 3 3 3 3 3 3 4 4 4 4 4 6
10 9 11 10 14 17 15 16 17 17 19 18 19 18 16 14 16 15 14 12 12 11 5 6 7 8 6 4 3 3 4 4 3 2 2 4 4 4 4 5 6 6 6 6
15 8 11 12 12 15 16 15 19 19 17 18 19 18 17 15 14 14 13 9 8 8 8 6 5 8 5 4 4 2 4 4 3 3 4 4 5 5 5 7 7 7 6 6
10 10 12 17 14 15 17 18 20 18 16 19 21 19 18 15 14 14 12 9 8 10 9 8 8 5 3 3 3 4 4 3 3 4 5 4 4 5 5 5 6 7 5 6
9 10 11 15 18 16 17 18 18 19 17 16 17 19 18 15 14 7 7 11 7 10 7 6 5 5 3 4 3 4 4 3 3 4 4 4 4 3 3 3 4 4 6 4
11 14 15 17 20 19 16 18 18 19 19 18 18 17 16 12 9 12 10 7 6 10 7 6 6 4 4 2 4 4 3 4 4 4 3 3 3 3 2 3 4 5 3 5
14 16 16 18 20 21 21 16 18 17 16 16 15 14 15 11 8 6 9 9 14 9 7 6 5 4 3 3 4 3 3 3 3 2 4 4 2 2 3 2 3 4 5 6
16 19 21 21 20 15 20 20 19 17 17 16 15 12 11 8 7 8 9 9 13 10 6 6 5 2 3 4 3 3 2 2 2 3 3 2 2 3 2 3 2 3 3 5
6 11 13 15 15 15 15 15 15 13 13 13 10 10 9 9 9 9 9 9 9 10 5 3 2 1 3 4 3 3 0 2 3 3 2 2 3 2 2 3 3 4 4 4
8 11 13 14 12 12 12 15 16 14 13 13 13 10 11 9 9 9 8 6 8 7 5 3 3 3 4 3 2 2 1 3 3 2 2 2 2 2 2 2 3 4 4 3
Wind_Direction
253 209 163 183 187 164 181 187 166 231 236 252 169 151 136 130 127 121 112 102 96 88 83 83 78 76 78 79 81 84 80 76 74 71 65 59 46 52 42 37 30 24 22 16
275 270 229 213 192 191 197 191 248 262 273 143 115 117 131 137 133 123 119 118 112 102 96 87 88 86 85 84 82 83 77 68 61 62 59 51 53 47 40 30 17 17 7 12
247 230 255 277 209 201 197 195 197 201 198 141 138 135 139 133 127 128 124 123 113 105 97 96 93 91 83 81 77 75 78 71 62 57 58 49 47 39 31 18 12 5 9 19
204 49 232 244 230 208 232 220 210 229 145 144 126 111 112 125 129 130 124 118 114 105 100 97 95 89 86 80 76 74 70 71 63 57 51 54 45 34 20 8 2 2 12 30
139 195 272 301 252 172 168 256 249 114 120 120 111 98 88 117 119 119 116 111 112 114 112 105 102 98 91 83 80 75 70 71 66 64 53 57 44 19 8 18 11 16 35 37
137 155 209 230 246 215 118 268 158 136 143 139 137 126 186 125 118 113 110 114 110 104 100 96 97 96 92 85 79 77 78 78 79 59 70 62 48 21 4 27 42 36 21 33
155 191 273 260 163 104 116 233 130 146 151 156 148 159 141 125 119 117 117 114 108 102 103 108 104 98 92 88 82 73 74 75 72 53 67 58 40 19 48 56 49 26 10 18
117 103 261 214 109 148 210 112 134 142 148 127 118 123 129 128 128 125 124 117 113 107 96 92 96 94 86 78 83 73 76 68 72 70 29 34 40 49 65 70 48 15 358 5
167 204 231 240 192 172 142 126 116 119 132 131 132 134 135 132 131 130 127 122 110 104 92 77 83 91 85 55 67 67 76 64 70 61 12 18 63 66 74 75 54 356 348 349
132 250 221 220 144 140 129 122 126 130 137 138 137 139 135 136 135 135 128 124 118 110 104 96 89 89 86 59 58 61 70 69 60 32 11 13 52 60 94 106 37 327 317 305
214 246 159 138 142 138 111 124 125 132 138 142 139 141 139 139 141 136 131 131 128 126 122 115 105 91 81 64 64 41 74 65 35 9 2 43 23 10 71 214 205 230 251 234
229 218 154 186 161 126 135 140 141 138 135 141 142 143 141 143 137 135 135 130 126 124 121 120 111 101 85 66 86 64 71 50 13 10 19 41 28 346 321 265 261 261 264 209
279 262 183 187 170 140 137 143 142 139 142 143 145 142 143 134 134 127 125 126 128 128 122 114 106 95 85 70 69 78 83 58 29 17 14 29 1 348 348 334 347 312 259 289
302 284 64 152 159 139 134 133 124 130 136 139 138 136 132 129 124 125 128 123 117 117 114 110 104 100 82 76 67 72 97 85 54 359 348 331 341 344 4 353 344 345 322 112
292 307 200 127 123 129 130 130 133 141 139 135 135 132 132 131 126 121 119 116 112 110 115 117 113 103 86 65 48 19 115 94 54 349 333 1 35 20 5 356 348 346 354 34
284 300 157 142 147 144 143 143 143 148 143 136 131 132 131 120 119 117 117 121 122 118 117 116 113 108 80 58 26 61 105 117 82 3 3 34 41 13 350 327 360 358 359 356
224 263 251 148 155 161 166 155 150 147 140 136 135 133 124 124 120 120 125 111 116 123 134 121 121 112 88 60 37 18 60 64 45 38 36 55 24 348 322 322 6 4 354 3
240 221 200 182 158 145 152 146 141 141 142 137 134 129 130 133 134 124 122 124 120 102 102 110 107 102 92 66 23 8 69 56 32 28 44 37 354 4 3 9 4 355 2 4
220 250 196 167 166 157 149 142 141 135 136 138 130 132 128 123 125 125 128 124 124 123 136 124 115 116 104 80 48 357 71 48 34 15 41 21 49 20 17 11 360 10 7 360
236 212 185 153 143 144 139 137 131 134 138 131 127 126 122 125 125 123 130 135 141 133 139 138 126 110 109 81 31 18 68 50 34 24 39 54 42 29 20 4 355 9 356 7
205 184 161 150 140 131 135 135 135 134 139 137 135 133 128 128 128 128 121 116 117 121 102 96 90 95 78 52 11 74 67 47 35 40 41 49 44 29 18 2 1 358 351 1
174 154 144 134 129 128 135 133 127 126 127 124 122 125 125 128 130 117 119 132 141 129 110 98 88 75 77 3 88 71 67 55 51 49 44 43 31 34 356 353 359 346 2 347
146 140 136 137 134 125 115 120 123 125 126 130 131 133 132 137 138 131 132 147 130 108 111 102 110 103 44 38 77 67 48 68 69 47 43 32 32 31 7 355 2 359 340 340
129 130 124 119 119 117 118 121 116 118 117 119 123 127 133 132 101 101 110 103 111 104 108 116 121 112 31 93 79 67 49 88 85 43 54 22 23 20 6 11 5 354 344 338
129 126 127 128 123 121 123 120 112 118 119 118 121 121 115 108 117 132 119 114 115 110 110 127 136 118 98 97 95 78 39 131 105 86 50 13 22 6 12 28 352 334 331 328
124 127 127 125 128 131 131 129 123 130 130 127 118 112 106 106 109 119 121 122 121 125 132 150 153 163 126 109 117 128 271 83 98 82 49 15 35 19 25 8 350 331 315 312
86 104 112 110 114 125 128 125 125 137 136 132 118 118 117 117 119 123 119 114 130 129 132 136 127 98 102 96 114 127 97 99 95 88 60 68 47 41 11 336 316 310 313 320